Location: Newark
(39.0622°N, 106.5590°E)
Time: 16:45:49
(UTC+00:00)

Transit 2A Rocket - Visible Passes

Search period start: 21 January 2020 00:00
Search period end: 31 January 2020 00:00
Orbit: 593 x 910 km, 66.7° (Epoch: 20 January)

Date Brightness Start Highest point End Pass type
(mag) Time Alt. Az. Time Alt. Az. Time Alt. Az.
21 Jan 6.7 21:53:57 10° SSE 21:57:29 25° ESE 22:01:00 10° NE visible
21 Jan 5.4 23:36:07 10° WSW 23:39:52 28° NW 23:43:39 10° N visible
22 Jan 7.6 21:13:20 10° SE 21:15:13 13° ESE 21:17:04 10° E visible
22 Jan 4.6 22:52:59 10° SW 22:57:13 53° WNW 23:01:27 10° NNE visible
23 Jan 4.5 22:12:14 25° SSW 22:14:41 78° ESE 22:19:00 10° NNE visible
24 Jan 5.9 21:32:38 37° E 21:32:38 37° E 21:36:15 10° NE visible
24 Jan 5.8 23:12:38 14° W 23:14:54 20° NW 23:18:07 10° N visible
25 Jan 7.5 20:52:24 13° ENE 20:52:24 13° ENE 20:53:01 10° ENE visible
25 Jan 5.1 22:32:23 35° NW 22:32:23 35° NW 22:36:09 10° NNE visible
26 Jan 6.0 21:51:47 27° NNE 21:51:47 27° NNE 21:53:51 10° NNE visible
27 Jan 7.3 21:10:58 12° NE 21:10:58 12° NE 21:11:18 10° NE visible
27 Jan 6.4 22:50:54 13° NNW 22:50:54 13° NNW 22:52:21 10° NNW visible
28 Jan 6.7 22:09:55 14° N 22:09:55 14° N 22:10:43 10° N visible
